Flag for U.S.A. Weather past 2 weeks in San Bernardino, California, U.S.A.

Now
65 °F

Mostly cloudy.


Feels Like: 65 °F
Forecast: 52 / 62 °F
Wind: No wind

Location: Riverside Municipal Airport

Current Time: Jan 29, 2015 at 9:49:26 PM

Latest Report: Jan 29, 2015 at 8:53 PM


Visibility: 10 mi

Pressure: 29.99 "Hg

Humidity: 40%

Dew point: 40 °F

Location of San BernardinoLocation

Historic Weather in San Bernardino — Graph

°F

San Bernardino temperature yesterday

Maximum temperature yesterday: 73 °F (at 11:53 AM)
Minimum temperature yesterday: 49 °F (at 4:53 AM)
Average temperature yesterday: 62 °F

Past Weeks' High & Low Weather Summary

 TemperatureHumidityPressure
High82 °F (Jan 25, 12:53 PM)97% (Jan 26, 11:53 PM)30.24 "Hg (Jan 26, 11:53 PM)
Low43 °F (Jan 16, 5:53 AM)7% (Jan 22, 1:53 PM)29.86 "Hg (Jan 20, 3:53 PM)
Average61 °F44%30.08 "Hg
* Reported Jan 14 7:53 PM — Jan 29 7:53 PM, San Bernardino, Weather by CustomWeather, © 2014

Note: Actual official high and low records may vary slightly from our data, if they occured in-between our weather recording intervals... More about our weather records

Advertising

San Bernardino weather history for previous 24 hours

 ConditionsComfort  
Time TempWeatherWind HumidityBarometerVisibility
7:53 PM
Jan 29
65 °FMostly cloudy.5 mph42%29.99 "Hg10 mi
6:53 PM67 °FLight rain. Overcast.10 mph39%29.99 "Hg10 mi
5:53 PM66 °FLight rain. Overcast.3 mph43%29.98 "Hg10 mi
4:53 PM69 °FOvercast.5 mph30%29.95 "Hg10 mi
3:53 PM68 °FOvercast.6 mph33%29.96 "Hg10 mi
2:53 PM71 °FMore clouds than sun.3 mph35%29.96 "Hg10 mi
1:53 PM72 °FSunny.7 mph31%29.96 "Hg10 mi
12:53 PM74 °FPartly sunny.5 mph29%29.98 "Hg10 mi
11:53 AM73 °FPartly sunny.8 mph30%30.01 "Hg10 mi
10:53 AM70 °FPartly sunny.6 mph37%30.04 "Hg10 mi
9:53 AM69 °FPartly sunny.7 mph38%30.05 "Hg10 mi
8:53 AM66 °FSunny.6 mph45%30.04 "Hg10 mi
7:53 AM61 °FOvercast.6 mph54%30.03 "Hg10 mi
6:53 AM61 °FOvercast.6 mph52%30.01 "Hg10 mi
5:53 AM60 °FClear.6 mph53%30.00 "Hg10 mi
4:53 AM62 °FClear.8 mph48%30.00 "Hg10 mi
3:53 AM62 °FClear.7 mph48%30.01 "Hg10 mi
2:53 AM62 °FClear.5 mph48%30.02 "Hg10 mi
1:53 AM62 °FClear.6 mph50%30.03 "Hg10 mi
12:53 AM62 °FClear.5 mph50%30.03 "Hg10 mi
11:53 PM
Jan 28
64 °FClear.6 mph47%30.04 "Hg10 mi
10:53 PM64 °FClear.7 mph49%30.06 "Hg10 mi
9:53 PM64 °FClear.3 mph49%30.07 "Hg10 mi
Weather by CustomWeather, © 2014

See weather overviewHow to use our weather pages